[[{"header":{"parameterUnit":"m.s-1","parameterCategory":1,"la1":30.2991,"la2":30.254,"lo1":-89.0895,"lo2":-89.0444,"dy":0.0017,"dx":0.0017,"nx":28,"ny":28,"refTime":"2024-08-24T09:00:00:Z","depth":0,"parameterNumber":2,"parameterNumberName":"U-component_of_WINDS"},"data":[0,0,0,0,0,0,0,0,0,0,0,0,0,0,0,0,0,0,0,0,0,0,0,0,0,0,0,0,0,0,0,0,0,0,0,0,0,0,0,0,0,0,0,0,0,0,0,0,0,0,0,0,0,0,0,0,0,0,-0.3938,-0.3938,0,-0.3937,-0.3937,-0.3937,-0.3897,-0.3896,-0.3895,-0.3894,-0.3895,-0.3896,-0.3897,0,0,0,0,0,0,0,0,0,0,0,0,0,-0.3905,-0.3906,-0.3938,-0.3938,-0.3938,-0.3937,-0.3937,-0.3937,-0.3897,-0.3896,-0.3894,-0.3893,-0.3894,-0.3896,-0.3897,0,0,0,0,0,0,0,0,0,0,0,0,0,-0.3913,-0.3906,-0.3938,-0.3917,-0.3916,-0.3937,-0.3937,-0.3937,-0.3897,-0.3896,-0.3894,-0.3893,-0.3894,-0.3895,-0.3897,-0.3938,0,0,-0.3902,-0.3902,0,0,0,0,0,0,0,0,-0.3913,-0.3915,-0.392,-0.3919,-0.3917,-0.3915,-0.3926,-0.3938,-0.3898,-0.3904,-0.3894,-0.3892,-0.3903,-0.3904,-0.3907,-0.3938,-0.3938,-0.3902,-0.3903,-0.3903,-0.3904,0,0,0,0,0,0,0,-0.3912,-0.3914,-0.3937,-0.3921,-0.3918,-0.3909,-0.3908,-0.3928,-0.3913,-0.3904,-0.3901,-0.3901,-0.3902,-0.3906,-0.3907,-0.3938,-0.3902,-0.3903,-0.3904,-0.3905,-0.4004,-0.4005,0,0,0,0,0,0,-0.3914,-0.3914,-0.3937,-0.3937,-0.3911,-0.3911,-0.391,-0.3918,-0.3912,-0.391,-0.3902,-0.3899,-0.3904,-0.3905,-0.3907,-0.3955,-0.3903,-0.3905,-0.3906,-0.4002,-0.4004,-0.4006,0,0,0,0,0,0,-0.3914,-0.3917,-0.3937,-0.3925,-0.3927,-0.3913,-0.3922,-0.3918,-0.3922,-0.3911,-0.3909,-0.3909,-0.3903,-0.3905,-0.3931,-0.3955,-0.3905,-0.3907,-0.4,-0.4003,-0.4005,-0.4052,0,0,0,0,0,0,-0.3913,-0.3917,-0.3932,-0.3926,-0.3928,-0.3961,-0.3923,-0.3919,-0.3925,-0.3921,-0.3917,-0.3915,-0.3902,-0.3929,-0.3932,-0.3956,-0.3908,-0.3998,-0.4001,-0.4004,-0.4049,-0.4056,-0.4063,0,0,0,0,0,-0.3912,-0.3946,-0.3933,-0.3936,-0.3946,-0.3963,-0.3964,-0.3948,-0.3927,-0.3943,-0.3935,-0.3915,-0.3951,-0.3932,-0.3935,-0.396,-0.3996,-0.4,-0.4004,-0.4046,-0.4055,-0.4063,0,0,0,0,0,0,-0.3956,-0.3945,-0.393,-0.3963,-0.3964,-0.3956,-0.3975,-0.3958,-0.3965,-0.3961,-0.394,-0.394,-0.397,-0.3967,-0.3946,-0.4,-0.397,-0.3975,-0.4001,-0.4009,-0.4016,-0.4017,-0.3909,0,0,0,0,0,-0.3969,-0.3983,-0.3972,-0.4002,-0.4003,-0.3989,-0.3996,-0.3983,-0.3983,-0.3984,-0.3979,-0.398,-0.3992,-0.4,-0.401,-0.4048,-0.4047,-0.4066,-0.4073,-0.4079,-0.4084,-0.4104,-0.4113,-0.4019,-0.4019,-0.4019,0,0,-0.3998,-0.3993,-0.4003,-0.4011,-0.401,-0.4026,-0.399,-0.4008,-0.4019,-0.3987,-0.4011,-0.4007,-0.4008,-0.404,-0.4054,-0.4039,-0.411,-0.4084,-0.4089,-0.4091,-0.4109,-0.4118,-0.4126,-0.4021,-0.4021,-0.402,0,0,-0.4057,-0.4054,-0.4079,-0.4079,-0.4078,-0.4068,-0.4074,-0.4069,-0.4065,-0.4089,-0.4065,-0.4078,-0.4099,-0.41,-0.4104,-0.4163,-0.4145,-0.4167,-0.4204,-0.4224,-0.4232,-0.4238,-0.426,-0.4268,-0.4171,-0.4172,-0.4172,0,-0.4092,-0.4114,-0.4094,-0.4113,-0.4118,-0.4088,-0.4114,-0.4115,-0.4118,-0.4122,-0.4105,-0.413,-0.4128,-0.416,-0.4175,-0.4178,-0.4185,-0.4168,-0.4232,-0.4238,-0.4244,-0.4265,-0.4273,-0.4174,-0.4174,-0.4174,-0.4173,0,-0.4157,-0.4173,-0.4193,-0.4196,-0.4203,-0.4225,-0.4209,-0.4218,-0.4204,-0.4197,-0.4222,-0.4218,-0.4228,-0.4234,-0.4221,-0.4265,-0.4255,-0.4236,-0.4206,-0.4256,-0.4276,-0.4283,-0.4178,-0.4177,-0.4176,-0.4176,0,0,-0.4245,-0.4237,-0.4245,-0.4246,-0.4243,-0.4255,-0.4275,-0.4284,-0.4292,-0.4295,-0.4313,-0.433,-0.4312,-0.4316,-0.4303,-0.432,-0.4368,-0.4298,-0.4298,-0.4312,-0.4417,-0.4433,-0.4442,-0.4356,-0.4357,-0.4358,-0.4417,0,-0.4304,-0.4339,-0.4321,-0.4359,-0.4373,-0.4345,-0.4363,-0.4364,-0.4357,-0.4368,-0.436,-0.4374,-0.4348,-0.435,-0.4366,-0.4359,-0.4389,-0.4354,-0.4373,-0.4374,-0.4375,-0.4452,-0.4469,-0.4525,-0.4425,-0.4426,-0.4427,0,-0.4376,-0.4382,-0.442,-0.4415,-0.442,-0.4437,-0.4443,-0.4454,-0.4454,-0.4448,-0.4452,-0.4435,-0.4455,-0.4425,-0.4453,-0.443,-0.4436,-0.4434,-0.4436,-0.4438,-0.4404,-0.4458,-0.4543,-0.4552,-0.4438,-0.4437,-0.4436,0,-0.4438,-0.4455,-0.448,-0.4482,-0.4476,-0.4488,-0.4486,-0.4484,-0.449,-0.4496,-0.45,-0.4508,-0.4513,-0.452,-0.4505,-0.4484,-0.4536,-0.4504,-0.4532,-0.4533,-0.4546,-0.4545,-0.4634,-0.4548,-0.4548,-0.4548,-0.4547,0,-0.4505,-0.453,-0.4508,-0.4524,-0.4551,-0.4531,-0.4559,-0.4554,-0.4552,-0.4567,-0.4543,-0.4557,-0.4537,-0.4549,-0.4538,-0.4564,-0.4566,-0.4562,-0.4559,-0.4565,-0.4566,-0.457,-0.4566,-0.455,-0.4549,-0.4549,-0.4548,0,-0.4579,-0.4565,-0.4591,-0.4583,-0.4581,-0.4602,-0.4595,-0.4609,-0.46,-0.4619,-0.4623,-0.4609,-0.4622,-0.4608,-0.4621,-0.4613,-0.4648,-0.4639,-0.4648,-0.4646,-0.4675,-0.4673,-0.4771,-0.4783,-0.4688,-0.4689,-0.469,0,-0.4624,-0.4642,-0.4636,-0.4644,-0.4643,-0.4656,-0.4662,-0.4643,-0.465,-0.4651,-0.4666,-0.4677,-0.4686,-0.4708,-0.47,-0.4709,-0.4701,-0.4734,-0.4702,-0.4708,-0.4703,-0.4702,-0.4704,-0.4741,-0.4743,-0.4743,-0.4744,0,-0.4705,-0.4697,-0.4706,-0.4713,-0.4721,-0.4726,-0.4729,-0.4737,-0.4717,-0.4727,-0.474,-0.4746,-0.4759,-0.4771,-0.4777,-0.4776,-0.4757,-0.4754,-0.4761,-0.4768,-0.4774,-0.4772,-0.4667,-0.4752,-0.4752,-0.4751,-0.4751,-0.475,-0.4766,-0.4782,-0.4779,-0.4791,-0.4791,-0.4794,-0.4808,-0.48,-0.481,-0.4819,-0.4807,-0.4824,-0.4823,-0.483,-0.4831,-0.4844,-0.483,-0.484,-0.4843,-0.4846,-0.4851,-0.477,-0.4845,-0.4844,-0.4844,-0.4844,-0.4844,0,-0.4847,-0.4844,-0.4854,-0.4859,-0.4868,-0.4849,-0.4851,-0.486,-0.4875,-0.4876,-0.4884,-0.4899,-0.4911,-0.4903,-0.4912,-0.4924,-0.4916,-0.4928,-0.4927,-0.4927,-0.4862,-0.4856,-0.4934,-0.4934,-0.4934,-0.4934,-0.4934,-0.4934,-0.489,-0.4915,-0.4907,-0.4932,-0.4929,-0.4945,-0.4948,-0.4951,-0.4951,-0.4969,-0.4978,-0.4973,-0.497,-0.4979,-0.4989,-0.4986,-0.4991,-0.5006,-0.5001,-0.4941,-0.4932,-0.4923,-0.4917,-0.5007,-0.5007,-0.5065,-0.5065,-0.5066]},{"header":{"parameterUnit":"m.s-1","parameterCategory":1,"la1":30.2991,"la2":30.254,"lo1":-89.0895,"lo2":-89.0444,"dy":0.0017,"dx":0.0017,"nx":28,"ny":28,"refTime":"2024-08-24T09:00:00:Z","depth":0,"parameterNumber":3,"parameterNumberName":"V-component_of_WINDS"},"data":[0,0,0,0,0,0,0,0,0,0,0,0,0,0,0,0,0,0,0,0,0,0,0,0,0,0,0,0,0,0,0,0,0,0,0,0,0,0,0,0,0,0,0,0,0,0,0,0,0,0,0,0,0,0,0,0,0,0,-1.6552,-1.6553,0,-1.6635,-1.6636,-1.6637,-1.6668,-1.6668,-1.6667,-1.6667,-1.6752,-1.6755,-1.6757,0,0,0,0,0,0,0,0,0,0,0,0,0,-1.642,-1.6423,-1.6552,-1.6553,-1.6554,-1.6635,-1.6636,-1.6637,-1.6668,-1.6668,-1.6667,-1.6667,-1.6751,-1.6754,-1.6757,0,0,0,0,0,0,0,0,0,0,0,0,0,-1.6488,-1.6423,-1.6552,-1.6579,-1.6582,-1.6635,-1.6636,-1.6638,-1.6668,-1.6668,-1.6667,-1.6667,-1.6751,-1.6754,-1.6758,-1.6789,0,0,-1.6769,-1.6771,0,0,0,0,0,0,0,0,-1.6484,-1.6493,-1.6574,-1.6577,-1.6581,-1.6641,-1.6621,-1.6688,-1.6668,-1.6636,-1.6667,-1.6667,-1.6716,-1.6722,-1.6739,-1.6793,-1.6797,-1.677,-1.6772,-1.6774,-1.6775,0,0,0,0,0,0,0,-1.6479,-1.6489,-1.6585,-1.6575,-1.658,-1.6587,-1.6597,-1.6634,-1.6677,-1.6638,-1.6641,-1.665,-1.6717,-1.6735,-1.6741,-1.6798,-1.677,-1.6773,-1.6775,-1.6777,-1.6883,-1.6884,0,0,0,0,0,0,-1.647,-1.6485,-1.6582,-1.6587,-1.6531,-1.659,-1.66,-1.6622,-1.6676,-1.6684,-1.665,-1.6651,-1.6729,-1.6736,-1.6744,-1.6784,-1.6774,-1.6777,-1.6779,-1.6883,-1.6883,-1.6884,0,0,0,0,0,0,-1.6467,-1.6478,-1.6579,-1.6537,-1.655,-1.6593,-1.6617,-1.6624,-1.6641,-1.6686,-1.6693,-1.666,-1.6729,-1.6739,-1.6778,-1.6788,-1.6779,-1.6782,-1.6882,-1.6883,-1.6884,-1.6865,0,0,0,0,0,0,-1.6463,-1.6477,-1.6489,-1.6537,-1.6552,-1.6611,-1.6618,-1.6626,-1.6648,-1.665,-1.6697,-1.6704,-1.6729,-1.6772,-1.6782,-1.6793,-1.6785,-1.6881,-1.6882,-1.6883,-1.6865,-1.6865,-1.6866,0,0,0,0,0,-1.6458,-1.648,-1.649,-1.6501,-1.6568,-1.6612,-1.662,-1.6648,-1.6648,-1.6661,-1.669,-1.6703,-1.6785,-1.6776,-1.6787,-1.6799,-1.6881,-1.6882,-1.6883,-1.6865,-1.6865,-1.6866,0,0,0,0,0,0,-1.6432,-1.6487,-1.6498,-1.6536,-1.6569,-1.6617,-1.6633,-1.6648,-1.6681,-1.6681,-1.6715,-1.6725,-1.6762,-1.6785,-1.6773,-1.6833,-1.6834,-1.6837,-1.6816,-1.6817,-1.6817,-1.6811,-1.6788,0,0,0,0,0,-1.6431,-1.6461,-1.6508,-1.6537,-1.6553,-1.659,-1.661,-1.6629,-1.6664,-1.6678,-1.671,-1.6743,-1.6777,-1.6798,-1.6832,-1.6869,-1.688,-1.6883,-1.6883,-1.6883,-1.6886,-1.6908,-1.691,-1.6888,-1.6888,-1.6888,0,0,-1.6429,-1.6463,-1.648,-1.6533,-1.656,-1.6591,-1.6602,-1.6634,-1.6657,-1.6683,-1.6722,-1.6746,-1.6786,-1.6825,-1.6843,-1.6845,-1.6894,-1.6885,-1.6884,-1.6887,-1.6909,-1.6911,-1.6913,-1.6889,-1.6889,-1.6889,0,0,-1.644,-1.6469,-1.6496,-1.6524,-1.6566,-1.6591,-1.6597,-1.6643,-1.6661,-1.67,-1.6721,-1.6749,-1.6806,-1.6834,-1.6856,-1.6879,-1.6892,-1.6889,-1.6889,-1.691,-1.6912,-1.6914,-1.6922,-1.6925,-1.6891,-1.6891,-1.6891,0,-1.6432,-1.6479,-1.6509,-1.654,-1.6563,-1.6589,-1.6617,-1.6643,-1.6693,-1.6708,-1.671,-1.6783,-1.6811,-1.6857,-1.6862,-1.6879,-1.6888,-1.6883,-1.6909,-1.6911,-1.6913,-1.6922,-1.6925,-1.689,-1.6891,-1.6891,-1.6891,0,-1.6467,-1.6499,-1.6517,-1.6565,-1.659,-1.662,-1.6655,-1.6676,-1.6693,-1.6718,-1.6759,-1.6794,-1.6835,-1.6848,-1.6865,-1.6896,-1.6896,-1.6903,-1.6905,-1.6914,-1.6923,-1.6926,-1.6889,-1.689,-1.689,-1.689,0,0,-1.6463,-1.6528,-1.6534,-1.6557,-1.6605,-1.6631,-1.6662,-1.6703,-1.6721,-1.6755,-1.6782,-1.6831,-1.6838,-1.6862,-1.6883,-1.6901,-1.6918,-1.6906,-1.6908,-1.6907,-1.6955,-1.6949,-1.6952,-1.6927,-1.6928,-1.6929,-1.6951,0,-1.6481,-1.6537,-1.6566,-1.661,-1.6641,-1.6666,-1.6693,-1.6726,-1.675,-1.678,-1.6807,-1.6841,-1.6848,-1.6863,-1.6882,-1.6911,-1.6927,-1.691,-1.6953,-1.6954,-1.6941,-1.6956,-1.695,-1.6969,-1.6955,-1.6955,-1.6956,0,-1.6509,-1.6543,-1.659,-1.6636,-1.665,-1.6674,-1.6714,-1.6742,-1.678,-1.6796,-1.6824,-1.6844,-1.6878,-1.6878,-1.6926,-1.6914,-1.6933,-1.695,-1.6952,-1.6956,-1.6955,-1.6961,-1.6976,-1.6979,-1.6961,-1.6961,-1.696,0,-1.6501,-1.6559,-1.6595,-1.6614,-1.6668,-1.6684,-1.6708,-1.6745,-1.6768,-1.6803,-1.6818,-1.6857,-1.6878,-1.6907,-1.6937,-1.6934,-1.6982,-1.6985,-1.6997,-1.6996,-1.7005,-1.7004,-1.7024,-1.7018,-1.7018,-1.7018,-1.7018,0,-1.6517,-1.6545,-1.6593,-1.6615,-1.6647,-1.668,-1.6711,-1.6736,-1.677,-1.6798,-1.6822,-1.6848,-1.6886,-1.6917,-1.6941,-1.6977,-1.6986,-1.7,-1.7006,-1.6998,-1.6996,-1.7011,-1.701,-1.7019,-1.7019,-1.7019,-1.7019,0,-1.6514,-1.6547,-1.6588,-1.6636,-1.6649,-1.667,-1.6712,-1.6734,-1.676,-1.6795,-1.6805,-1.6846,-1.6883,-1.6917,-1.6966,-1.6982,-1.7019,-1.7027,-1.7006,-1.7009,-1.702,-1.7018,-1.7049,-1.7054,-1.7045,-1.7045,-1.7045,0,-1.6522,-1.6544,-1.6595,-1.6615,-1.6638,-1.6671,-1.6694,-1.6728,-1.6751,-1.6797,-1.6814,-1.6853,-1.6886,-1.6945,-1.6979,-1.7017,-1.7026,-1.7034,-1.7031,-1.7022,-1.7025,-1.7024,-1.7026,-1.7033,-1.7033,-1.7033,-1.7033,0,-1.6533,-1.6548,-1.6581,-1.662,-1.6647,-1.6679,-1.6712,-1.6728,-1.6767,-1.6793,-1.6831,-1.6857,-1.6907,-1.6946,-1.6988,-1.7013,-1.703,-1.7034,-1.7039,-1.703,-1.7017,-1.7024,-1.7005,-1.7033,-1.7033,-1.7033,-1.7033,-1.7033,-1.6535,-1.6556,-1.6596,-1.6632,-1.666,-1.669,-1.6714,-1.6743,-1.6776,-1.682,-1.6838,-1.6877,-1.6915,-1.6974,-1.6998,-1.703,-1.7033,-1.704,-1.7042,-1.7043,-1.7041,-1.7012,-1.7038,-1.7038,-1.7038,-1.7038,-1.7038,0,-1.6547,-1.6574,-1.6607,-1.6652,-1.6681,-1.6694,-1.6732,-1.6755,-1.6789,-1.6823,-1.6856,-1.69,-1.6938,-1.6975,-1.7015,-1.7033,-1.7042,-1.7043,-1.7042,-1.7047,-1.7036,-1.7028,-1.7035,-1.7035,-1.7035,-1.7035,-1.7035,-1.7035,-1.6557,-1.6593,-1.6613,-1.6664,-1.6691,-1.6729,-1.675,-1.6778,-1.6806,-1.6854,-1.6886,-1.691,-1.6946,-1.6989,-1.7025,-1.7035,-1.7048,-1.7047,-1.7059,-1.7048,-1.7048,-1.7047,-1.704,-1.7049,-1.7049,-1.7067,-1.7067,-1.7067]}]]